Location: Bellerive
(46.9237°N, 7.0223°E)
Time: 05:02:07
(UTC+00:00)

Cosmos 1461 - Pass Details

Date: 09 April 2020
Orbit: 507 x 659 km, 65.0° (Epoch: 01 June)

Event Time Altitude Azimuth Distance (km) Brightness Sun altitude
Rises 18:56:17 0° 323° (NW) 2,883 7.6 -8.0°
Reaches altitude 10° 18:58:31 10° 325° (NW) 1,998 6.6 -8.3°
Maximum altitude 19:03:04 82° 52° (NE) 651 3.1 -9.0°
Drops below altitude 10° 19:07:45 10° 141° (SE) 2,053 5.2 -9.8°
Enters shadow 19:07:53 - 141° (SE) 2,106 5.2 -9.8°
